[[{"header":{"parameterUnit":"m.s-1","parameterCategory":1,"la1":30.2991,"la2":30.254,"lo1":-89.0895,"lo2":-89.0444,"dy":0.0017,"dx":0.0017,"nx":28,"ny":28,"refTime":"2024-09-03T03:00:00:Z","depth":0,"parameterNumber":2,"parameterNumberName":"U-component_of_WINDS"},"data":[0,0,0,0,0,0,0,0,0,0,0,0,0,0,0,0,0,0,0,0,0,0,0,0,0,0,0,0,0,0,0,0,0,0,0,0,0,0,0,0,0,0,0,0,0,0,0,0,0,0,0,0,0,0,0,0,0,0,-8.8106,-8.8106,0,-8.8118,-8.8118,-8.8118,-8.7983,-8.7979,-8.7975,-8.7972,-8.798,-8.7984,-8.7987,0,0,0,0,0,0,0,0,0,0,0,0,0,-8.7962,-8.7966,-8.8106,-8.8106,-8.8106,-8.8118,-8.8118,-8.8118,-8.7983,-8.7979,-8.7974,-8.797,-8.7979,-8.7983,-8.7988,0,0,0,0,0,0,0,0,0,0,0,0,0,-8.8005,-8.7967,-8.8106,-8.804,-8.8035,-8.8118,-8.8118,-8.8118,-8.7984,-8.7979,-8.7973,-8.7968,-8.7978,-8.7983,-8.7988,-8.8134,0,0,-8.8005,-8.8008,0,0,0,0,0,0,0,0,-8.8003,-8.801,-8.805,-8.8045,-8.8039,-8.8043,-8.8071,-8.8124,-8.7986,-8.8003,-8.7972,-8.7965,-8.8005,-8.8008,-8.8023,-8.8135,-8.8135,-8.8006,-8.8009,-8.8012,-8.8013,0,0,0,0,0,0,0,-8.8,-8.8009,-8.811,-8.8051,-8.8044,-8.8009,-8.8009,-8.808,-8.8035,-8.8001,-8.7991,-8.7995,-8.8001,-8.8018,-8.8022,-8.8135,-8.8006,-8.8011,-8.8014,-8.8016,-8.8366,-8.8372,0,0,0,0,0,0,-8.8006,-8.8007,-8.811,-8.8111,-8.8007,-8.8017,-8.8016,-8.8047,-8.8034,-8.8027,-8.8,-8.7989,-8.8011,-8.8016,-8.8022,-8.8189,-8.8012,-8.8017,-8.802,-8.836,-8.8367,-8.8374,0,0,0,0,0,0,-8.8004,-8.8017,-8.811,-8.8057,-8.8066,-8.8025,-8.8061,-8.8051,-8.8067,-8.8033,-8.8024,-8.8025,-8.8007,-8.8014,-8.8107,-8.8187,-8.8019,-8.8024,-8.8353,-8.8362,-8.8371,-8.8527,0,0,0,0,0,0,-8.8,-8.8017,-8.8072,-8.8059,-8.8069,-8.8196,-8.8066,-8.8055,-8.8077,-8.8063,-8.8054,-8.8047,-8.8003,-8.81,-8.8113,-8.8192,-8.8029,-8.8345,-8.8357,-8.8368,-8.8514,-8.854,-8.8562,0,0,0,0,0,-8.7996,-8.8114,-8.8075,-8.8088,-8.8138,-8.8201,-8.8206,-8.8154,-8.8084,-8.8138,-8.8118,-8.8048,-8.8178,-8.811,-8.8124,-8.8206,-8.834,-8.8354,-8.8367,-8.8503,-8.8535,-8.8561,0,0,0,0,0,0,-8.8135,-8.8111,-8.8067,-8.8186,-8.8197,-8.8178,-8.8244,-8.8189,-8.8218,-8.8203,-8.8137,-8.8136,-8.824,-8.8233,-8.8158,-8.8346,-8.8247,-8.8263,-8.8346,-8.8375,-8.8399,-8.8395,-8.8033,0,0,0,0,0,-8.8181,-8.8235,-8.8211,-8.8318,-8.8326,-8.8286,-8.8311,-8.827,-8.8278,-8.8281,-8.8266,-8.8275,-8.8318,-8.8347,-8.8385,-8.8515,-8.8509,-8.8578,-8.8602,-8.8622,-8.8635,-8.8701,-8.8731,-8.8418,-8.8418,-8.8418,0,0,-8.8273,-8.8267,-8.8305,-8.8346,-8.8349,-8.8406,-8.8289,-8.8354,-8.8395,-8.829,-8.8376,-8.8367,-8.8373,-8.8485,-8.8533,-8.8482,-8.8722,-8.8639,-8.8655,-8.8657,-8.8718,-8.8748,-8.8774,-8.8427,-8.8425,-8.8424,0,0,-8.8469,-8.8472,-8.856,-8.8567,-8.8575,-8.8548,-8.857,-8.856,-8.855,-8.8637,-8.8559,-8.8607,-8.8683,-8.8689,-8.8703,-8.8907,-8.8843,-8.8922,-8.9044,-8.911,-8.9134,-8.9155,-8.9225,-8.9251,-8.8937,-8.8937,-8.8937,0,-8.8582,-8.8665,-8.8612,-8.8683,-8.8702,-8.8614,-8.8702,-8.8711,-8.873,-8.8745,-8.8689,-8.8783,-8.8781,-8.8892,-8.8942,-8.8958,-8.8978,-8.8919,-8.9135,-8.9156,-8.9175,-8.924,-8.9267,-8.8946,-8.8945,-8.8944,-8.8943,0,-8.8802,-8.8862,-8.8932,-8.8955,-8.8983,-8.9062,-8.902,-8.9056,-8.9015,-8.8993,-8.9083,-8.9078,-8.9112,-8.9138,-8.9097,-8.9243,-8.9211,-8.9147,-8.9044,-8.9215,-8.9275,-8.93,-8.8959,-8.8956,-8.8953,-8.8951,0,0,-8.908,-8.9076,-8.9102,-8.9111,-8.9116,-8.9159,-8.9236,-8.9271,-8.9301,-8.932,-8.9379,-8.9448,-8.9389,-8.9404,-8.9365,-8.9423,-8.9581,-8.9351,-8.935,-8.939,-8.9739,-8.9783,-8.9813,-8.9542,-8.9547,-8.955,-8.9737,0,-8.9267,-8.9396,-8.9353,-8.9483,-8.9536,-8.9456,-8.9521,-8.9531,-8.9515,-8.9556,-8.9538,-8.9586,-8.9506,-8.9515,-8.957,-8.9551,-8.9649,-8.9537,-8.9593,-8.9596,-8.9588,-8.9844,-8.9891,-9.0066,-8.976,-8.9764,-8.9767,0,-8.9501,-8.9531,-8.9667,-8.9663,-8.9683,-8.9743,-8.9773,-8.9815,-8.9825,-8.9809,-8.9829,-8.9778,-8.985,-8.9754,-8.9852,-8.9777,-8.9798,-8.9793,-8.9799,-8.9796,-8.9687,-8.9844,-9.0121,-9.0146,-8.9804,-8.9801,-8.9798,0,-8.9685,-8.9759,-8.9849,-8.986,-8.9859,-8.9903,-8.9904,-8.9909,-8.9933,-8.996,-8.9975,-9.001,-9.0028,-9.0056,-9.0015,-8.9949,-9.0118,-9.0018,-9.0104,-9.0105,-9.0137,-9.0134,-9.0416,-9.0162,-9.0161,-9.0161,-9.016,0,-8.9894,-8.998,-8.9931,-8.9986,-9.008,-9.0031,-9.0124,-9.0116,-9.0122,-9.0173,-9.0108,-9.0157,-9.0103,-9.0147,-9.0117,-9.0201,-9.0211,-9.0198,-9.0187,-9.02,-9.0201,-9.0208,-9.0192,-9.0168,-9.0166,-9.0165,-9.0164,0,-9.0111,-9.0083,-9.0176,-9.0169,-9.017,-9.0238,-9.0231,-9.0281,-9.0263,-9.0329,-9.0342,-9.0312,-9.0361,-9.0325,-9.0374,-9.0353,-9.0462,-9.0438,-9.0459,-9.045,-9.0535,-9.0526,-9.0826,-9.0862,-9.0591,-9.0593,-9.0596,0,-9.0243,-9.0307,-9.0309,-9.034,-9.0346,-9.0396,-9.0422,-9.0378,-9.0407,-9.0425,-9.0472,-9.0517,-9.0548,-9.063,-9.0612,-9.0649,-9.0621,-9.0724,-9.0625,-9.0636,-9.0616,-9.061,-9.0615,-9.0742,-9.0745,-9.0747,-9.075,0,-9.048,-9.0464,-9.0504,-9.0541,-9.0574,-9.06,-9.0621,-9.065,-9.0605,-9.0642,-9.0692,-9.0717,-9.0768,-9.0812,-9.0843,-9.0842,-9.0788,-9.0783,-9.0803,-9.0813,-9.082,-9.0812,-9.0507,-9.0774,-9.0771,-9.0769,-9.0768,-9.0767,-9.0654,-9.0707,-9.0717,-9.0764,-9.0777,-9.0798,-9.0845,-9.0834,-9.0876,-9.0914,-9.0887,-9.0946,-9.0955,-9.0991,-9.0999,-9.1043,-9.1,-9.1032,-9.1038,-9.1045,-9.1055,-9.082,-9.105,-9.1049,-9.1048,-9.1048,-9.1047,0,-9.0883,-9.0887,-9.0931,-9.0963,-9.1001,-9.0952,-9.0973,-9.1007,-9.106,-9.1075,-9.1109,-9.1167,-9.121,-9.1198,-9.1236,-9.1274,-9.125,-9.1285,-9.1278,-9.1278,-9.1093,-9.1069,-9.1304,-9.1304,-9.1304,-9.1303,-9.1303,-9.1303,-9.1005,-9.1091,-9.1077,-9.1169,-9.1172,-9.123,-9.1246,-9.1266,-9.1277,-9.1345,-9.1381,-9.1374,-9.1378,-9.1416,-9.1453,-9.1448,-9.1462,-9.1506,-9.1491,-9.1317,-9.1292,-9.1267,-9.1244,-9.1511,-9.1511,-9.1671,-9.1673,-9.1674]},{"header":{"parameterUnit":"m.s-1","parameterCategory":1,"la1":30.2991,"la2":30.254,"lo1":-89.0895,"lo2":-89.0444,"dy":0.0017,"dx":0.0017,"nx":28,"ny":28,"refTime":"2024-09-03T03:00:00:Z","depth":0,"parameterNumber":3,"parameterNumberName":"V-component_of_WINDS"},"data":[0,0,0,0,0,0,0,0,0,0,0,0,0,0,0,0,0,0,0,0,0,0,0,0,0,0,0,0,0,0,0,0,0,0,0,0,0,0,0,0,0,0,0,0,0,0,0,0,0,0,0,0,0,0,0,0,0,0,2.454,2.4541,0,2.4615,2.4616,2.4617,2.4619,2.4618,2.4617,2.4616,2.469,2.4693,2.4696,0,0,0,0,0,0,0,0,0,0,0,0,0,2.4396,2.4399,2.454,2.4541,2.4542,2.4615,2.4616,2.4617,2.4619,2.4618,2.4617,2.4616,2.4689,2.4693,2.4696,0,0,0,0,0,0,0,0,0,0,0,0,0,2.4463,2.4399,2.4539,2.4551,2.4553,2.4615,2.4616,2.4617,2.4619,2.4618,2.4616,2.4615,2.4688,2.4692,2.4697,2.475,0,0,2.471,2.4711,0,0,0,0,0,0,0,0,2.446,2.4469,2.4549,2.4551,2.4553,2.4606,2.4593,2.4662,2.462,2.4594,2.4616,2.4614,2.4663,2.4669,2.4687,2.4754,2.4757,2.471,2.4712,2.4714,2.4715,0,0,0,0,0,0,0,2.4455,2.4465,2.4569,2.455,2.4552,2.4553,2.4561,2.4606,2.4635,2.4596,2.4597,2.4606,2.4664,2.4682,2.4688,2.4758,2.471,2.4714,2.4716,2.4718,2.4877,2.4879,0,0,0,0,0,0,2.4448,2.4462,2.4567,2.4572,2.4502,2.4556,2.4565,2.459,2.4635,2.464,2.4607,2.4605,2.4676,2.4683,2.4691,2.476,2.4714,2.4718,2.4721,2.4875,2.4877,2.4879,0,0,0,0,0,0,2.4445,2.4458,2.4564,2.4517,2.453,2.456,2.4588,2.4593,2.4611,2.4643,2.4648,2.462,2.4675,2.4685,2.4737,2.4762,2.472,2.4724,2.4873,2.4876,2.4878,2.4895,0,0,0,0,0,0,2.4441,2.4456,2.4477,2.4517,2.4533,2.4609,2.459,2.4595,2.4619,2.4618,2.4657,2.4662,2.4675,2.473,2.4741,2.4767,2.4727,2.4871,2.4874,2.4877,2.4893,2.4898,2.4903,0,0,0,0,0,2.4436,2.4478,2.4478,2.4491,2.456,2.461,2.4619,2.4634,2.4621,2.4642,2.4663,2.4661,2.4757,2.4736,2.4747,2.4775,2.487,2.4874,2.4877,2.489,2.4897,2.4903,0,0,0,0,0,0,2.4438,2.4483,2.4484,2.454,2.4572,2.461,2.4638,2.464,2.4675,2.4672,2.4688,2.4697,2.4749,2.4767,2.4742,2.4832,2.4812,2.4818,2.4818,2.4825,2.483,2.4825,2.4731,0,0,0,0,0,2.4445,2.4483,2.452,2.4566,2.4582,2.4607,2.463,2.4639,2.4671,2.4684,2.4709,2.474,2.4778,2.4802,2.4838,2.4895,2.4905,2.492,2.4925,2.4929,2.4935,2.497,2.4978,2.4892,2.4892,2.4891,0,0,2.446,2.4489,2.4512,2.4567,2.4593,2.4632,2.4618,2.4659,2.4689,2.469,2.4742,2.4761,2.4796,2.4852,2.4878,2.4869,2.4961,2.4934,2.4937,2.4941,2.4975,2.4983,2.499,2.4894,2.4894,2.4893,0,0,2.4507,2.4533,2.4575,2.4602,2.4641,2.4658,2.4669,2.4708,2.4722,2.4774,2.4776,2.4811,2.4875,2.4901,2.4923,2.4984,2.4984,2.4995,2.5022,2.5056,2.5063,2.5069,2.5093,2.5101,2.5,2.5,2.5001,0,2.452,2.458,2.4596,2.4639,2.4664,2.4669,2.4713,2.4738,2.4786,2.4804,2.4793,2.4876,2.49,2.4963,2.4979,2.4995,2.5008,2.4991,2.506,2.5067,2.5073,2.5096,2.5105,2.5002,2.5002,2.5001,2.5001,0,2.4596,2.4638,2.4667,2.4717,2.4745,2.4788,2.4811,2.4837,2.4844,2.4863,2.4917,2.4947,2.4991,2.5006,2.5012,2.5071,2.5065,2.5057,2.5038,2.5082,2.5104,2.5113,2.5004,2.5003,2.5003,2.5002,0,0,2.4646,2.4706,2.4717,2.4741,2.4786,2.4818,2.4862,2.4907,2.493,2.4964,2.5002,2.5057,2.5052,2.5076,2.5086,2.5115,2.5165,2.5104,2.5105,2.5116,2.5235,2.5242,2.5252,2.5165,2.5166,2.5168,2.5232,0,2.47,2.478,2.4797,2.4865,2.4905,2.4912,2.495,2.4982,2.5001,2.5037,2.5057,2.5097,2.5085,2.5101,2.513,2.5152,2.5189,2.5148,2.5201,2.5203,2.5194,2.5263,2.527,2.5329,2.5241,2.5242,2.5243,0,2.4774,2.4813,2.4886,2.4929,2.4946,2.498,2.5024,2.5058,2.5095,2.5107,2.5136,2.5143,2.519,2.5168,2.5233,2.5205,2.5228,2.5242,2.5245,2.5252,2.5227,2.5273,2.5348,2.5358,2.5257,2.5256,2.5255,0,2.4807,2.4876,2.493,2.495,2.5,2.5025,2.5047,2.5083,2.5109,2.5147,2.5165,2.5207,2.523,2.5263,2.5281,2.5263,2.5346,2.5325,2.5358,2.5358,2.5376,2.5375,2.5458,2.5387,2.5387,2.5387,2.5387,0,2.4867,2.4912,2.4946,2.4979,2.503,2.505,2.51,2.5121,2.5154,2.5192,2.5198,2.5233,2.5255,2.5293,2.5308,2.5361,2.5371,2.5382,2.5386,2.5383,2.5382,2.5399,2.5396,2.5389,2.5389,2.5388,2.5388,0,2.4912,2.4937,2.4996,2.504,2.5052,2.5089,2.5126,2.5159,2.5178,2.5226,2.5239,2.5269,2.5315,2.5337,2.5392,2.5402,2.5464,2.5463,2.5452,2.5454,2.5487,2.5484,2.5585,2.5601,2.5518,2.5518,2.5519,0,2.495,2.4985,2.5034,2.5061,2.5085,2.5127,2.5155,2.5175,2.5204,2.5251,2.5278,2.5325,2.5364,2.5437,2.5464,2.5507,2.5509,2.5542,2.5516,2.5513,2.5513,2.5512,2.5517,2.5547,2.5548,2.5548,2.5549,0,2.5016,2.5027,2.5068,2.5114,2.5148,2.5185,2.5221,2.5242,2.5268,2.53,2.5349,2.5379,2.5438,2.5485,2.5531,2.5553,2.5556,2.5557,2.5567,2.5566,2.5559,2.5566,2.5467,2.5555,2.5554,2.5554,2.5553,2.5553,2.506,2.5093,2.5134,2.518,2.521,2.5244,2.5278,2.5303,2.5344,2.5395,2.5404,2.5456,2.5494,2.5557,2.5581,2.5622,2.5614,2.5628,2.5632,2.5636,2.564,2.5551,2.5629,2.5629,2.5629,2.5629,2.5629,0,2.5129,2.5156,2.5198,2.525,2.5287,2.5287,2.5328,2.5359,2.5405,2.544,2.5479,2.5536,2.5582,2.5613,2.566,2.5687,2.569,2.5699,2.5698,2.5704,2.5642,2.563,2.5696,2.5696,2.5696,2.5696,2.5696,2.5696,2.5169,2.5226,2.5242,2.5315,2.5341,2.5393,2.5417,2.5449,2.5478,2.5542,2.5581,2.5601,2.5636,2.5686,2.5728,2.5736,2.5754,2.5764,2.5772,2.5715,2.5708,2.5701,2.569,2.5767,2.5767,2.5831,2.5831,2.5832]}]]